Satellite-Ground Cal/Val Site Overpasses Predictions

Prediction of Satellite NPP Overpassing Cal/Val Site: Antarctic Dome C

Ground Cal/Val Site Location: Latitude: -75.10, Longitude: 123.35; Satellite-Ground Site NADIR distance within 100 km.

Table of predicted overpasses for the next 14.0 days since TLE Epoch: 12/22/2018
Interval Starting Time Ending Time Minimum Distance Time Minimum Distance (km)
1 12/23/2018 15:01:37 12/23/2018 15:02:00 12/23/2018 15:01:49 59.48
2 12/24/2018 14:42:47 12/24/2018 14:43:12 12/24/2018 14:42:59 49.86
3 12/25/2018 07:44:29 12/25/2018 07:44:48 12/25/2018 07:44:38 74.54
4 12/26/2018 07:25:34 12/26/2018 07:26:02 12/26/2018 07:25:48 33.25
5 12/28/2018 15:08:02 12/28/2018 15:08:08 12/28/2018 15:08:05 97.29
6 12/29/2018 14:49:01 12/29/2018 14:49:30 12/29/2018 14:49:15 14.05
7 12/31/2018 07:31:49 12/31/2018 07:32:19 12/31/2018 07:32:04 3.58
8 01/03/2019 14:55:15 01/03/2019 14:55:44 01/03/2019 14:55:30 22.51


NCC Satellite Cal/Val Overpasses Prediction Service
